Flag for Cyprus Weather past 2 weeks in Larnaca, Cyprus

Now
79 °F

Clear.


Feels Like: 79 °F
Forecast: 72 / 92 °F
Wind: 7 mph from West

Location: Larnaca Airport

Current Time: Aug 29, 2015 at 4:09:50 AM

Latest Report: Aug 29, 2015 at 3:30 AM


Visibility: 10 mi

Pressure: 29.83 "Hg

Humidity: 30%

Dew point: 45 °F

Location of LarnacaLocation

Historic Weather in Larnaca — Graph

°F

Larnaca temperature yesterday

Maximum temperature yesterday: 93 °F (at 2:00 PM)
Minimum temperature yesterday: 75 °F (at 5:30 AM)
Average temperature yesterday: 85 °F

Past Weeks' High & Low Weather Summary

 TemperatureHumidityPressure
High97 °F (Aug 15, 3:00 PM)94% (Aug 14, 6:30 AM)29.86 "Hg (Aug 14, 6:30 AM)
Low72 °F (Aug 21, 6:00 AM)16% (Aug 26, 12:00 PM)29.62 "Hg (Aug 23, 6:00 PM)
Average85 °F60%29.76 "Hg
* Reported Aug 14 3:00 AM — Aug 29 3:00 AM, Larnaca, Weather by CustomWeather, © 2015

Note: Actual official high and low records may vary slightly from our data, if they occured in-between our weather recording intervals... More about our weather records

Advertising

Larnaca weather history for previous 24 hours

 ConditionsComfort  
Time TempWeatherWind HumidityBarometerVisibility
3:00 AM
Sat, Aug 29
81 °FClear.7 mph28%29.83 "Hg10 mi
2:30 AM82 °FClear.10 mph26%29.83 "Hg10 mi
2:00 AM81 °FClear.9 mph34%29.83 "Hg10 mi
1:00 AM82 °FClear.8 mph32%29.83 "Hg10 mi
12:00 AM82 °FClear.8 mph35%29.83 "Hg10 mi
11:30 PM
Fri, Aug 28
82 °FPassing clouds.6 mph35%29.83 "HgN/A
11:00 PM82 °FPassing clouds.8 mph37%29.83 "HgN/A
10:30 PM82 °FPassing clouds.7 mph45%29.83 "HgN/A
10:00 PM82 °FClear.7 mph48%29.86 "Hg10 mi
9:30 PM82 °FPassing clouds.5 mph55%29.86 "HgN/A
9:00 PM84 °FPassing clouds.5 mph66%29.83 "HgN/A
8:30 PM84 °FPassing clouds.9 mph70%29.83 "HgN/A
8:00 PM84 °FPassing clouds.9 mph70%29.83 "HgN/A
7:30 PM86 °FPassing clouds.10 mph66%29.83 "HgN/A
7:00 PM86 °FPassing clouds.10 mph66%29.83 "HgN/A
6:30 PM88 °FPassing clouds.10 mph62%29.83 "HgN/A
6:00 PM88 °FPassing clouds.10 mph59%29.83 "HgN/A
5:30 PM90 °FPassing clouds.8 mph38%29.83 "HgN/A
5:00 PM91 °FPassing clouds.9 mph36%29.83 "HgN/A
4:30 PM91 °FPassing clouds.9 mph32%29.83 "HgN/A
4:00 PM93 °FPassing clouds.9 mph32%29.86 "HgN/A
3:30 PM93 °FPassing clouds.10 mph26%29.86 "HgN/A
3:00 PM91 °FPassing clouds.13 mph26%29.86 "HgN/A
2:30 PM93 °FPassing clouds.13 mph28%29.86 "HgN/A
2:00 PM93 °FPassing clouds.13 mph30%29.86 "HgN/A
1:30 PM91 °FPassing clouds.15 mph41%29.86 "HgN/A
1:00 PM91 °FPassing clouds.14 mph34%29.86 "HgN/A
12:30 PM91 °FPassing clouds.13 mph38%29.86 "HgN/A
12:00 PM90 °FPassing clouds.13 mph43%29.86 "HgN/A
11:30 AM90 °FPassing clouds.13 mph43%29.86 "HgN/A
11:00 AM90 °FPassing clouds.12 mph49%29.86 "HgN/A
10:30 AM90 °FPassing clouds.9 mph43%29.86 "HgN/A
10:00 AM90 °FPassing clouds.8 mph41%29.86 "HgN/A
9:30 AM88 °FPassing clouds.8 mph35%29.86 "HgN/A
9:00 AM90 °FPassing clouds.5 mph26%29.86 "HgN/A
8:30 AM88 °FPassing clouds.2 mph21%29.86 "HgN/A
8:00 AM86 °FPassing clouds.3 mph25%29.86 "HgN/A
7:30 AM81 °FPassing clouds.No wind37%29.83 "HgN/A
7:00 AM77 °FPassing clouds.3 mph42%29.83 "HgN/A
6:00 AM75 °FPassing clouds.No wind36%29.83 "HgN/A
5:30 AM75 °FClear.3 mph36%29.83 "Hg10 mi
5:00 AM77 °FClear.3 mph36%29.83 "Hg10 mi
4:30 AM77 °FClear.3 mph32%29.83 "Hg10 mi
4:00 AM79 °FClear.8 mph28%29.80 "Hg10 mi
Weather by CustomWeather, © 2015

See weather overviewHow to use our weather pages